| time (UTC) | temp F | wind direction | speed MPH | gust MPH | rain 1hr in | rain 24hr in | rain mn in | humidity % | barometer mb |
| 20260510191528 | 66 | 250 | 15.0 | 22.0 | 0.00 | 0.00 | 0.00 | 56 | 1016.7 |
| 20260510191027 | 65 | 249 | 12.0 | 26.0 | 0.00 | 0.00 | 0.00 | 58 | 1016.8 |
| 20260510190526 | 65 | 273 | 15.0 | 25.0 | 0.00 | 0.00 | 0.00 | 57 | 1016.8 |
| 20260510190029 | 64 | 248 | 16.0 | 26.0 | 0.00 | 0.00 | 0.00 | 62 | 1016.7 |
| 20260510185525 | 63 | 259 | 15.0 | 26.0 | 0.00 | 0.00 | 0.00 | 59 | 1016.8 |
| 20260510185024 | 63 | 262 | 11.0 | 23.0 | 0.00 | 0.00 | 0.00 | 62 | 1016.9 |
| 20260510184523 | 61 | 260 | 13.0 | 23.0 | 0.00 | 0.00 | 0.00 | 62 | 1016.9 |
| 20260510184023 | 62 | 191 | 11.0 | 22.0 | 0.00 | 0.00 | 0.00 | 60 | 1016.8 |
| 20260510183523 | 63 | 310 | 9.0 | 16.0 | 0.00 | 0.00 | 0.00 | 62 | 1016.9 |
| 20260510183020 | 62 | 258 | 7.0 | 18.0 | 0.00 | 0.00 | 0.00 | 62 | 1016.9 |
| 20260510182519 | 62 | 262 | 10.0 | 17.0 | 0.00 | 0.00 | 0.00 | 62 | 1016.8 |
| 20260510182018 | 61 | 252 | 7.0 | 14.0 | 0.00 | 0.00 | 0.00 | 64 | 1016.7 |
| 20260510181524 | 60 | 241 | 6.0 | 16.0 | 0.00 | 0.00 | 0.00 | 63 | 1016.7 |
| 20260510181018 | 61 | 262 | 7.0 | 16.0 | 0.00 | 0.00 | 0.00 | 62 | 1016.6 |
| 20260510180518 | 61 | 267 | 7.0 | 19.0 | 0.00 | 0.00 | 0.00 | 63 | 1016.6 |
| 20260510180017 | 61 | 258 | 6.0 | 14.0 | 0.00 | 0.00 | 0.00 | 63 | 1016.5 |
| 20260510175517 | 61 | 191 | 5.0 | 18.0 | 0.00 | 0.00 | 0.00 | 64 | 1016.5 |
| 20260510175015 | 60 | 228 | 4.0 | 18.0 | 0.00 | 0.00 | 0.00 | 65 | 1016.5 |
| 20260510174514 | 60 | 250 | 3.0 | 10.0 | 0.00 | 0.00 | 0.00 | 66 | 1016.5 |
| 20260510174013 | 59 | 191 | 3.0 | 22.0 | 0.00 | 0.00 | 0.00 | 67 | 1016.6 |
| 20260510173517 | 58 | 339 | 6.0 | 22.0 | 0.00 | 0.00 | 0.00 | 66 | 1016.7 |
| 20260510173011 | 58 | 191 | 4.0 | 15.0 | 0.00 | 0.00 | 0.00 | 67 | 1016.7 |
| 20260510172511 | 58 | 191 | 7.0 | 16.0 | 0.00 | 0.00 | 0.00 | 66 | 1016.6 |
| 20260510172011 | 58 | 265 | 5.0 | 21.0 | 0.00 | 0.00 | 0.00 | 68 | 1016.5 |
| 20260510171512 | 58 | 241 | 7.0 | 21.0 | 0.00 | 0.00 | 0.00 | 68 | 1016.6 |
| 20260510171009 | 58 | 191 | 8.0 | 19.0 | 0.00 | 0.00 | 0.00 | 69 | 1016.5 |
| 20260510170508 | 57 | 254 | 9.0 | 19.0 | 0.00 | 0.00 | 0.00 | 70 | 1016.6 |
| 20260510170010 | 57 | 243 | 8.0 | 17.0 | 0.00 | 0.00 | 0.00 | 70 | 1016.6 |
| 20260510165508 | 57 | 191 | 7.0 | 18.0 | 0.00 | 0.00 | 0.00 | 70 | 1016.6 |
| 20260510165007 | 57 | 263 | 7.0 | 14.0 | 0.00 | 0.00 | 0.00 | 70 | 1016.6 |
| 20260510164508 | 57 | 268 | 7.0 | 16.0 | 0.00 | 0.00 | 0.00 | 70 | 1016.6 |
| 20260510164007 | 57 | 191 | 6.0 | 18.0 | 0.00 | 0.00 | 0.00 | 70 | 1016.5 |
| 20260510163507 | 57 | 191 | 3.0 | 12.0 | 0.00 | 0.00 | 0.00 | 70 | 1016.5 |
| 20260510163016 | 57 | 281 | 5.0 | 17.0 | 0.00 | 0.00 | 0.00 | 69 | 1016.6 |
| 20260510162507 | 57 | 341 | 6.0 | 17.0 | 0.00 | 0.00 | 0.00 | 69 | 1016.6 |
| 20260510162005 | 57 | 191 | 6.0 | 17.0 | 0.00 | 0.00 | 0.00 | 69 | 1016.6 |
| 20260510161504 | 57 | 250 | 8.0 | 17.0 | 0.00 | 0.00 | 0.00 | 71 | 1016.6 |
| 20260510161003 | 56 | 265 | 9.0 | 21.0 | 0.00 | 0.00 | 0.00 | 72 | 1016.6 |
| 20260510160504 | 56 | 240 | 10.0 | 21.0 | 0.00 | 0.00 | 0.00 | 71 | 1016.5 |
| 20260510160009 | 56 | 262 | 7.0 | 21.0 | 0.00 | 0.00 | 0.00 | 72 | 1016.5 |
| 20260510155504 | 56 | 259 | 8.0 | 21.0 | 0.00 | 0.00 | 0.00 | 71 | 1016.6 |
| 20260510155003 | 56 | 191 | 5.0 | 15.0 | 0.00 | 0.00 | 0.00 | 73 | 1016.5 |
| 20260510154601 | 55 | 251 | 8.0 | 15.0 | 0.00 | 0.00 | 0.00 | 73 | 1016.4 |
| 20260510154059 | 55 | 259 | 2.0 | 10.0 | 0.00 | 0.00 | 0.00 | 72 | 1016.4 |
| 20260510153559 | 55 | 276 | 2.0 | 10.0 | 0.00 | 0.00 | 0.00 | 72 | 1016.4 |
| 20260510153102 | 55 | 254 | 3.0 | 10.0 | 0.00 | 0.00 | 0.00 | 72 | 1016.5 |
| 20260510152557 | 55 | 241 | 2.0 | 10.0 | 0.00 | 0.00 | 0.00 | 73 | 1016.4 |
| 20260510152058 | 55 | 313 | 2.0 | 11.0 | 0.00 | 0.00 | 0.00 | 72 | 1016.5 |
| 20260510151559 | 54 | 191 | 2.0 | 12.0 | 0.00 | 0.00 | 0.00 | 73 | 1016.3 |
| 20260510151056 | 54 | 322 | 3.0 | 12.0 | 0.00 | 0.00 | 0.00 | 72 | 1016.4 |
| 20260510150557 | 53 | 191 | 1.0 | 10.0 | 0.00 | 0.00 | 0.00 | 71 | 1016.4 |
| 20260510150057 | 53 | 322 | 1.0 | 10.0 | 0.00 | 0.00 | 0.00 | 66 | 1016.4 |
| 20260510145556 | 53 | 191 | 3.0 | 10.0 | 0.00 | 0.00 | 0.00 | 67 | 1016.5 |
| 20260510145053 | 53 | 3 | 0.0 | 4.0 | 0.00 | 0.00 | 0.00 | 67 | 1016.7 |
| 20260510144553 | 52 | 348 | 0.0 | 4.0 | 0.00 | 0.00 | 0.00 | 67 | 1016.7 |
| 20260510144051 | 51 | 333 | 0.0 | 2.0 | 0.00 | 0.00 | 0.00 | 67 | 1016.4 |
| 20260510143552 | 51 | 325 | 0.0 | 4.0 | 0.00 | 0.00 | 0.00 | 68 | 1016.2 |
| 20260510143050 | 51 | 323 | 1.0 | 5.0 | 0.00 | 0.00 | 0.00 | 67 | 1016.2 |
| 20260510142549 | 51 | 2 | 0.0 | 5.0 | 0.00 | 0.00 | 0.00 | 69 | 1016.4 |
| 20260510142048 | 50 | 10 | 0.0 | 3.0 | 0.00 | 0.00 | 0.00 | 69 | 1016.2 |
| 20260510141555 | 50 | 42 | 0.0 | 3.0 | 0.00 | 0.00 | 0.00 | 68 | 1016.2 |
| 20260510141048 | 50 | 52 | 0.0 | 5.0 | 0.00 | 0.00 | 0.00 | 67 | 1016.2 |
| 20260510140548 | 50 | 54 | 2.0 | 13.0 | 0.00 | 0.00 | 0.00 | 67 | 1016.2 |
| 20260510140054 | 50 | 350 | 0.0 | 13.0 | 0.00 | 0.00 | 0.00 | 68 | 1016.2 |
| 20260510135547 | 49 | 316 | 3.0 | 7.0 | 0.00 | 0.00 | 0.00 | 70 | 1016.2 |
| 20260510135044 | 48 | 31 | 1.0 | 3.0 | 0.00 | 0.00 | 0.00 | 70 | 1016.1 |
| 20260510134544 | 48 | 33 | 1.0 | 5.0 | 0.00 | 0.00 | 0.00 | 70 | 1016.2 |
| 20260510134046 | 48 | 54 | 2.0 | 5.0 | 0.00 | 0.00 | 0.00 | 71 | 1016.4 |
| 20260510133546 | 47 | 40 | 1.0 | 2.0 | 0.00 | 0.00 | 0.00 | 71 | 1016.3 |
| 20260510133041 | 47 | 43 | 0.0 | 3.0 | 0.00 | 0.00 | 0.00 | 71 | 1016.2 |
| 20260510132540 | 47 | 44 | 1.0 | 3.0 | 0.00 | 0.00 | 0.00 | 71 | 1016.2 |
| 20260510132041 | 47 | 14 | 0.0 | 7.0 | 0.00 | 0.00 | 0.00 | 72 | 1016.3 |
| 20260510131538 | 47 | 9 | 2.0 | 7.0 | 0.00 | 0.00 | 0.00 | 72 | 1016.2 |
| 20260510131038 | 46 | 23 | 1.0 | 3.0 | 0.00 | 0.00 | 0.00 | 73 | 1016.2 |
| 20260510130537 | 46 | 23 | 1.0 | 3.0 | 0.00 | 0.00 | 0.00 | 73 | 1016.3 |
| 20260510130037 | 46 | 19 | 1.0 | 2.0 | 0.00 | 0.00 | 0.00 | 73 | 1016.3 |
| 20260510125535 | 46 | 19 | 1.0 | 2.0 | 0.00 | 0.00 | 0.00 | 72 | 1016.2 |
| 20260510125035 | 47 | 19 | 1.0 | 2.0 | 0.00 | 0.00 | 0.00 | 71 | 1016.3 |
| 20260510124534 | 47 | 18 | 1.0 | 3.0 | 0.00 | 0.00 | 0.00 | 71 | 1016.2 |
| 20260510124033 | 47 | 40 | 0.0 | 5.0 | 0.00 | 0.00 | 0.00 | 70 | 1016.3 |
| 20260510123533 | 47 | 43 | 1.0 | 5.0 | 0.00 | 0.00 | 0.00 | 71 | 1016.2 |
| 20260510123033 | 47 | 49 | 0.0 | 3.0 | 0.00 | 0.00 | 0.00 | 71 | 1016.2 |
| 20260510122532 | 47 | 50 | 0.0 | 3.0 | 0.00 | 0.00 | 0.00 | 71 | 1016.2 |
| 20260510122033 | 47 | 50 | 0.0 | 2.0 | 0.00 | 0.00 | 0.00 | 72 | 1016.3 |
| 20260510121531 | 47 | 50 | 0.0 | 2.0 | 0.00 | 0.00 | 0.00 | 72 | 1016.4 |
| 20260510121031 | 47 | 51 | 0.0 | 1.0 | 0.00 | 0.00 | 0.00 | 72 | 1016.3 |
| 20260510120529 | 47 | 51 | 0.0 | 1.0 | 0.00 | 0.00 | 0.00 | 72 | 1016.4 |
| 20260510120028 | 47 | 51 | 0.0 | 2.0 | 0.00 | 0.00 | 0.00 | 71 | 1016.3 |
| 20260510115529 | 47 | 51 | 1.0 | 3.0 | 0.00 | 0.00 | 0.00 | 70 | 1016.2 |
| 20260510115029 | 48 | 52 | 1.0 | 4.0 | 0.00 | 0.00 | 0.00 | 70 | 1016.2 |
| 20260510114535 | 48 | 48 | 1.0 | 4.0 | 0.00 | 0.00 | 0.00 | 70 | 1016.2 |
| 20260510114027 | 47 | 6 | 1.0 | 2.0 | 0.00 | 0.00 | 0.00 | 71 | 1016.2 |
| 20260510113527 | 47 | 6 | 1.0 | 2.0 | 0.00 | 0.00 | 0.00 | 72 | 1016.3 |
| 20260510113027 | 47 | 6 | 0.0 | 2.0 | 0.00 | 0.00 | 0.00 | 72 | 1016.2 |
| 20260510112525 | 47 | 6 | 0.0 | 2.0 | 0.00 | 0.00 | 0.00 | 72 | 1016.2 |
| 20260510112025 | 47 | 6 | 0.0 | 2.0 | 0.00 | 0.00 | 0.00 | 71 | 1016.1 |
| 20260510111524 | 48 | 6 | 1.0 | 2.0 | 0.00 | 0.00 | 0.00 | 71 | 1016.0 |
| 20260510111023 | 48 | 6 | 1.0 | 2.0 | 0.00 | 0.00 | 0.00 | 70 | 1015.9 |
| 20260510110522 | 48 | 6 | 0.0 | 2.0 | 0.00 | 0.00 | 0.00 | 70 | 1015.9 |
| 20260510110022 | 48 | 6 | 0.0 | 2.0 | 0.00 | 0.00 | 0.00 | 70 | 1015.8 |
| 20260510105522 | 48 | 6 | 1.0 | 2.0 | 0.00 | 0.00 | 0.00 | 70 | 1015.8 |
| 20260510105022 | 48 | 6 | 0.0 | 2.0 | 0.00 | 0.00 | 0.00 | 70 | 1015.7 |
| 20260510104531 | 48 | 6 | 0.0 | 2.0 | 0.00 | 0.00 | 0.00 | 70 | 1015.8 |
| 20260510104021 | 48 | 6 | 0.0 | 2.0 | 0.00 | 0.00 | 0.00 | 70 | 1016.1 |
| 20260510103521 | 48 | 6 | 0.0 | 2.0 | 0.00 | 0.00 | 0.00 | 70 | 1016.0 |
| 20260510103021 | 48 | 6 | 0.0 | 2.0 | 0.00 | 0.00 | 0.00 | 71 | 1016.0 |
| 20260510102520 | 48 | 6 | 1.0 | 2.0 | 0.00 | 0.00 | 0.00 | 70 | 1016.0 |
| 20260510102019 | 48 | 6 | 0.0 | 2.0 | 0.00 | 0.00 | 0.00 | 70 | 1016.1 |
| 20260510101518 | 48 | 6 | 0.0 | 4.0 | 0.00 | 0.00 | 0.00 | 70 | 1016.0 |
| 20260510101017 | 48 | 2 | 1.0 | 2.0 | 0.00 | 0.00 | 0.00 | 70 | 1016.0 |
| 20260510100517 | 48 | 2 | 0.0 | 3.0 | 0.00 | 0.00 | 0.00 | 71 | 1015.8 |
| 20260510100016 | 49 | 2 | 1.0 | 3.0 | 0.00 | 0.00 | 0.00 | 70 | 1015.8 |
| 20260510095516 | 49 | 2 | 0.0 | 3.0 | 0.00 | 0.00 | 0.00 | 70 | 1015.8 |
| 20260510095014 | 49 | 2 | 0.0 | 3.0 | 0.00 | 0.00 | 0.00 | 69 | 1015.8 |
| 20260510094531 | 49 | 1 | 0.0 | 2.0 | 0.00 | 0.00 | 0.00 | 69 | 1015.8 |
| 20260510094014 | 49 | 360 | 0.0 | 2.0 | 0.00 | 0.00 | 0.00 | 69 | 1015.7 |
| 20260510093515 | 49 | 360 | 0.0 | 2.0 | 0.00 | 0.00 | 0.00 | 69 | 1015.6 |
| 20260510093014 | 49 | 360 | 0.0 | 2.0 | 0.00 | 0.00 | 0.00 | 69 | 1015.6 |
| 20260510092512 | 50 | 360 | 0.0 | 2.0 | 0.00 | 0.00 | 0.00 | 69 | 1015.6 |
| 20260510092011 | 50 | 360 | 0.0 | 1.0 | 0.00 | 0.00 | 0.00 | 68 | 1015.7 |
| 20260510091510 | 50 | 360 | 0.0 | 2.0 | 0.00 | 0.00 | 0.00 | 68 | 1015.7 |
| 20260510091010 | 50 | 360 | 0.0 | 2.0 | 0.00 | 0.00 | 0.00 | 68 | 1015.7 |
| 20260510090510 | 51 | 360 | 0.0 | 2.0 | 0.00 | 0.00 | 0.00 | 68 | 1015.8 |
| 20260510090009 | 51 | 360 | 0.0 | 2.0 | 0.00 | 0.00 | 0.00 | 67 | 1015.8 |
| 20260510085507 | 51 | 360 | 0.0 | 2.0 | 0.00 | 0.00 | 0.00 | 66 | 1015.7 |
| 20260510085008 | 51 | 360 | 0.0 | 2.0 | 0.00 | 0.00 | 0.00 | 65 | 1015.8 |
| 20260510084506 | 52 | 360 | 0.0 | 2.0 | 0.00 | 0.00 | 0.00 | 64 | 1015.8 |
| 20260510084005 | 52 | 360 | 0.0 | 5.0 | 0.00 | 0.00 | 0.00 | 64 | 1015.8 |
| 20260510083505 | 52 | 360 | 1.0 | 5.0 | 0.00 | 0.00 | 0.00 | 64 | 1015.9 |
| 20260510083004 | 52 | 29 | 0.0 | 4.0 | 0.00 | 0.00 | 0.00 | 65 | 1015.9 |
| 20260510082503 | 52 | 33 | 0.0 | 1.0 | 0.00 | 0.00 | 0.00 | 64 | 1015.9 |
| 20260510082002 | 52 | 33 | 0.0 | 1.0 | 0.00 | 0.00 | 0.00 | 64 | 1016.0 |
| 20260510081503 | 53 | 33 | 0.0 | 1.0 | 0.00 | 0.00 | 0.00 | 63 | 1015.9 |
| 20260510081101 | 53 | 33 | 0.0 | 1.0 | 0.00 | 0.00 | 0.00 | 63 | 1015.9 |
| 20260510080601 | 53 | 33 | 0.0 | 1.0 | 0.00 | 0.00 | 0.00 | 63 | 1015.9 |
| 20260510075558 | 53 | 33 | 0.0 | 2.0 | 0.00 | 0.00 | 0.00 | 61 | 1016.0 |
| 20260510075101 | 53 | 33 | 1.0 | 2.0 | 0.00 | 0.00 | 0.00 | 61 | 1016.0 |
| 20260510074558 | 54 | 33 | 1.0 | 2.0 | 0.00 | 0.00 | 0.00 | 61 | 1016.0 |
| 20260510074058 | 54 | 33 | 1.0 | 3.0 | 0.00 | 0.00 | 0.00 | 61 | 1016.1 |
| 20260510073556 | 54 | 33 | 1.0 | 3.0 | 0.00 | 0.00 | 0.00 | 61 | 1016.0 |
| 20260510073105 | 54 | 33 | 1.0 | 3.0 | 0.00 | 0.00 | 0.00 | 60 | 1016.0 |
| 20260510072556 | 54 | 33 | 1.0 | 3.0 | 0.00 | 0.00 | 0.00 | 60 | 1016.0 |
| 20260510072058 | 54 | 35 | 1.0 | 3.0 | 0.00 | 0.00 | 0.00 | 60 | 1016.0 |
| 20260510071558 | 55 | 36 | 1.0 | 2.0 | 0.00 | 0.00 | 0.00 | 60 | 1016.1 |
| 20260510071053 | 55 | 36 | 1.0 | 3.0 | 0.00 | 0.00 | 0.00 | 59 | 1016.0 |
| 20260510070552 | 55 | 37 | 1.0 | 3.0 | 0.00 | 0.00 | 0.00 | 59 | 1016.0 |
| 20260510070052 | 55 | 17 | 0.0 | 2.0 | 0.00 | 0.00 | 0.00 | 59 | 1016.0 |
| 20260510065552 | 54 | 17 | 1.0 | 2.0 | 0.00 | 0.00 | 0.00 | 59 | 1016.0 |
| 20260510065052 | 54 | 17 | 1.0 | 3.0 | 0.00 | 0.00 | 0.00 | 59 | 1015.9 |
| 20260510064553 | 54 | 17 | 1.0 | 3.0 | 0.00 | 0.00 | 0.00 | 59 | 1016.0 |
| 20260510064051 | 54 | 17 | 1.0 | 3.0 | 0.00 | 0.00 | 0.00 | 59 | 1016.0 |
| 20260510063551 | 55 | 17 | 0.0 | 2.0 | 0.00 | 0.00 | 0.00 | 58 | 1015.9 |
| 20260510063051 | 55 | 17 | 0.0 | 2.0 | 0.00 | 0.00 | 0.00 | 57 | 1015.9 |
| 20260510062550 | 55 | 17 | 0.0 | 2.0 | 0.00 | 0.00 | 0.00 | 57 | 1015.9 |
| 20260510062050 | 55 | 17 | 1.0 | 3.0 | 0.00 | 0.00 | 0.00 | 56 | 1015.8 |
| 20260510061600 | 56 | 21 | 0.0 | 3.0 | 0.00 | 0.00 | 0.00 | 56 | 1015.7 |
| 20260510061055 | 56 | 2 | 1.0 | 5.0 | 0.00 | 0.00 | 0.00 | 55 | 1015.6 |
| 20260510060550 | 57 | 2 | 0.0 | 5.0 | 0.00 | 0.00 | 0.00 | 53 | 1015.6 |
| 20260510060050 | 56 | 3 | 3.0 | 5.0 | 0.00 | 0.00 | 0.00 | 55 | 1015.6 |
| 20260510055550 | 56 | 3 | 2.0 | 4.0 | 0.00 | 0.00 | 0.00 | 55 | 1015.5 |
| 20260510055050 | 56 | 3 | 0.0 | 4.0 | 0.00 | 0.00 | 0.00 | 55 | 1015.5 |
| 20260510054559 | 57 | 3 | 1.0 | 3.0 | 0.00 | 0.00 | 0.00 | 55 | 1015.5 |
| 20260510054050 | 57 | 3 | 2.0 | 3.0 | 0.00 | 0.00 | 0.00 | 53 | 1015.5 |
| 20260510053549 | 58 | 3 | 0.0 | 3.0 | 0.00 | 0.00 | 0.00 | 53 | 1015.4 |
| 20260510053049 | 58 | 3 | 1.0 | 3.0 | 0.00 | 0.00 | 0.00 | 51 | 1015.3 |
| 20260510052549 | 58 | 3 | 0.0 | 2.0 | 0.00 | 0.00 | 0.00 | 52 | 1015.2 |
| 20260510052049 | 58 | 3 | 0.0 | 2.0 | 0.00 | 0.00 | 0.00 | 52 | 1015.3 |
| 20260510051549 | 58 | 3 | 0.0 | 1.0 | 0.00 | 0.00 | 0.00 | 53 | 1015.3 |
| 20260510051053 | 58 | 3 | 0.0 | 2.0 | 0.00 | 0.00 | 0.00 | 53 | 1015.2 |
| 20260510050548 | 58 | 3 | 0.0 | 2.0 | 0.00 | 0.00 | 0.00 | 54 | 1015.2 |
| 20260510050053 | 59 | 3 | 0.0 | 2.0 | 0.00 | 0.00 | 0.00 | 54 | 1015.1 |
| 20260510045548 | 59 | 3 | 1.0 | 4.0 | 0.00 | 0.00 | 0.00 | 52 | 1015.1 |
| 20260510045048 | 60 | 3 | 1.0 | 3.0 | 0.00 | 0.00 | 0.00 | 51 | 1015.0 |
| 20260510044549 | 60 | 2 | 0.0 | 4.0 | 0.00 | 0.00 | 0.00 | 51 | 1015.0 |
| 20260510044048 | 60 | 2 | 0.0 | 4.0 | 0.00 | 0.00 | 0.00 | 50 | 1014.9 |
| 20260510043548 | 61 | 56 | 0.0 | 2.0 | 0.00 | 0.00 | 0.00 | 48 | 1014.9 |
| 20260510043048 | 61 | 56 | 0.0 | 2.0 | 0.00 | 0.00 | 0.00 | 51 | 1014.9 |
| 20260510042551 | 61 | 56 | 0.0 | 2.0 | 0.00 | 0.00 | 0.00 | 50 | 1014.8 |
| 20260510042049 | 61 | 56 | 0.0 | 1.0 | 0.00 | 0.00 | 0.00 | 51 | 1014.8 |
| 20260510041602 | 62 | 56 | 0.0 | 1.0 | 0.00 | 0.00 | 0.00 | 49 | 1014.8 |
| 20260510041047 | 61 | 56 | 0.0 | 1.0 | 0.00 | 0.00 | 0.00 | 50 | 1014.6 |
| 20260510040548 | 62 | 56 | 0.0 | 1.0 | 0.00 | 0.00 | 0.00 | 50 | 1014.6 |
| 20260510040048 | 63 | 56 | 0.0 | 1.0 | 0.00 | 0.00 | 0.00 | 50 | 1014.5 |
| 20260510035546 | 63 | 56 | 0.0 | 2.0 | 0.00 | 0.00 | 0.00 | 51 | 1014.3 |
| 20260510035046 | 63 | 56 | 0.0 | 1.0 | 0.00 | 0.00 | 0.00 | 52 | 1014.3 |
| 20260510034554 | 63 | 56 | 0.0 | 1.0 | 0.00 | 0.00 | 0.00 | 54 | 1014.3 |
| 20260510034050 | 63 | 56 | 0.0 | 1.0 | 0.00 | 0.00 | 0.00 | 53 | 1014.3 |
| 20260510033547 | 64 | 56 | 0.0 | 1.0 | 0.00 | 0.00 | 0.00 | 52 | 1014.2 |
| 20260510033051 | 65 | 56 | 0.0 | 1.0 | 0.00 | 0.00 | 0.00 | 49 | 1014.2 |
| 20260510032547 | 66 | 56 | 0.0 | 1.0 | 0.00 | 0.00 | 0.00 | 50 | 1014.2 |
| 20260510032049 | 67 | 56 | 0.0 | 3.0 | 0.00 | 0.00 | 0.00 | 50 | 1014.2 |
| 20260510031552 | 68 | 56 | 0.0 | 3.0 | 0.00 | 0.00 | 0.00 | 42 | 1014.2 |
| 20260510031049 | 68 | 69 | 0.0 | 3.0 | 0.00 | 0.00 | 0.00 | 50 | 1014.1 |
| 20260510030545 | 68 | 69 | 0.0 | 3.0 | 0.00 | 0.00 | 0.00 | 50 | 1014.2 |
| 20260510030045 | 68 | 69 | 1.0 | 2.0 | 0.00 | 0.00 | 0.00 | 50 | 1014.2 |
| 20260510025545 | 69 | 70 | 0.0 | 2.0 | 0.00 | 0.00 | 0.00 | 50 | 1014.1 |
| 20260510025045 | 69 | 70 | 0.0 | 2.0 | 0.00 | 0.00 | 0.00 | 50 | 1014.1 |
| 20260510024604 | 69 | 70 | 0.0 | 1.0 | 0.00 | 0.00 | 0.00 | 49 | 1014.1 |
| 20260510024045 | 69 | 70 | 0.0 | 1.0 | 0.00 | 0.00 | 0.00 | 47 | 1014.1 |
| 20260510023544 | 69 | 70 | 0.0 | 1.0 | 0.00 | 0.00 | 0.00 | 51 | 1014.1 |
| 20260510023044 | 70 | 70 | 0.0 | 1.0 | 0.00 | 0.00 | 0.00 | 49 | 1014.1 |
| 20260510022544 | 70 | 70 | 0.0 | 1.0 | 0.00 | 0.00 | 0.00 | 47 | 1014.1 |
| 20260510022044 | 71 | 70 | 0.0 | 2.0 | 0.00 | 0.00 | 0.00 | 45 | 1014.1 |
| 20260510021544 | 71 | 70 | 0.0 | 2.0 | 0.00 | 0.00 | 0.00 | 43 | 1014.0 |
| 20260510021043 | 71 | 71 | 0.0 | 1.0 | 0.00 | 0.00 | 0.00 | 43 | 1014.0 |
| 20260510020542 | 72 | 70 | 0.0 | 1.0 | 0.00 | 0.00 | 0.00 | 41 | 1014.1 |
| 20260510020042 | 72 | 70 | 0.0 | 1.0 | 0.00 | 0.00 | 0.00 | 39 | 1014.1 |
| 20260510015541 | 73 | 71 | 0.0 | 2.0 | 0.00 | 0.00 | 0.00 | 39 | 1014.2 |
| 20260510015042 | 73 | 71 | 0.0 | 2.0 | 0.00 | 0.00 | 0.00 | 35 | 1014.2 |
| 20260510014542 | 73 | 71 | 0.0 | 0.0 | 0.00 | 0.00 | 0.00 | 38 | 1014.1 |
| 20260510014041 | 74 | 71 | 0.0 | 1.0 | 0.00 | 0.00 | 0.00 | 34 | 1014.3 |
| 20260510013545 | 75 | 71 | 0.0 | 1.0 | 0.00 | 0.00 | 0.00 | 29 | 1014.4 |
| 20260510013049 | 74 | 71 | 0.0 | 1.0 | 0.00 | 0.00 | 0.00 | 33 | 1014.4 |
| 20260510012543 | 74 | 71 | 0.0 | 1.0 | 0.00 | 0.00 | 0.00 | 34 | 1014.5 |
| 20260510012038 | 74 | 71 | 0.0 | 3.0 | 0.00 | 0.00 | 0.00 | 33 | 1014.5 |
| 20260510011539 | 74 | 71 | 0.0 | 3.0 | 0.00 | 0.00 | 0.00 | 25 | 1014.5 |
| 20260510011037 | 74 | 71 | 0.0 | 2.0 | 0.00 | 0.00 | 0.00 | 24 | 1014.6 |
| 20260510010537 | 75 | 71 | 0.0 | 2.0 | 0.00 | 0.00 | 0.00 | 21 | 1014.6 |
| 20260510010037 | 75 | 71 | 0.0 | 2.0 | 0.00 | 0.00 | 0.00 | 22 | 1014.7 |
| 20260510005537 | 76 | 71 | 0.0 | 2.0 | 0.00 | 0.00 | 0.00 | 19 | 1014.7 |
| 20260510005035 | 76 | 71 | 0.0 | 2.0 | 0.00 | 0.00 | 0.00 | 23 | 1014.8 |
| 20260510004543 | 76 | 71 | 0.0 | 3.0 | 0.00 | 0.00 | 0.00 | 22 | 1014.9 |
| 20260510004035 | 76 | 71 | 1.0 | 3.0 | 0.00 | 0.00 | 0.00 | 19 | 1014.9 |
| 20260510003535 | 76 | 146 | 0.0 | 3.0 | 0.00 | 0.00 | 0.00 | 17 | 1014.9 |
| 20260510003035 | 76 | 146 | 1.0 | 3.0 | 0.00 | 0.00 | 0.00 | 22 | 1014.9 |
| 20260510002534 | 76 | 236 | 0.0 | 2.0 | 0.00 | 0.00 | 0.00 | 22 | 1014.9 |
| 20260510002034 | 76 | 236 | 0.0 | 4.0 | 0.00 | 0.00 | 0.00 | 19 | 1015.0 |
| 20260510001534 | 76 | 237 | 2.0 | 6.0 | 0.00 | 0.00 | 0.00 | 26 | 1015.0 |
| 20260510001033 | 77 | 154 | 3.0 | 7.0 | 0.00 | 0.00 | 0.00 | 24 | 1015.0 |
| 20260510000533 | 77 | 150 | 4.0 | 7.0 | 0.00 | 0.00 | 0.00 | 24 | 1014.8 |
| 20260510000032 | 75 | 138 | 5.0 | 7.0 | 0.00 | 0.00 | 0.00 | 24 | 1015.0 |
| 20260509235532 | 75 | 144 | 4.0 | 7.0 | 0.00 | 0.00 | 0.00 | 24 | 1015.1 |
| 20260509235031 | 75 | 145 | 5.0 | 7.0 | 0.00 | 0.00 | 0.00 | 23 | 1015.2 |
| 20260509234533 | 76 | 136 | 4.0 | 8.0 | 0.00 | 0.00 | 0.00 | 23 | 1015.2 |
| 20260509234029 | 77 | 146 | 5.0 | 8.0 | 0.00 | 0.00 | 0.00 | 25 | 1015.3 |
| 20260509233529 | 77 | 156 | 5.0 | 8.0 | 0.00 | 0.00 | 0.00 | 24 | 1015.3 |
| 20260509233028 | 78 | 151 | 6.0 | 8.0 | 0.00 | 0.00 | 0.00 | 24 | 1015.4 |
| 20260509232528 | 77 | 155 | 6.0 | 8.0 | 0.00 | 0.00 | 0.00 | 24 | 1015.4 |
| 20260509232027 | 78 | 157 | 6.0 | 8.0 | 0.00 | 0.00 | 0.00 | 23 | 1015.6 |
| 20260509231526 | 79 | 154 | 5.0 | 9.0 | 0.00 | 0.00 | 0.00 | 24 | 1015.7 |
| 20260509231025 | 79 | 150 | 6.0 | 9.0 | 0.00 | 0.00 | 0.00 | 28 | 1015.8 |
| 20260509230524 | 80 | 152 | 6.0 | 9.0 | 0.00 | 0.00 | 0.00 | 24 | 1015.8 |
| 20260509230024 | 80 | 145 | 6.0 | 10.0 | 0.00 | 0.00 | 0.00 | 25 | 1016.0 |
| 20260509225523 | 79 | 163 | 5.0 | 10.0 | 0.00 | 0.00 | 0.00 | 29 | 1016.1 |
| 20260509225021 | 80 | 146 | 5.0 | 8.0 | 0.00 | 0.00 | 0.00 | 25 | 1016.2 |
| 20260509224521 | 80 | 173 | 4.0 | 8.0 | 0.00 | 0.00 | 0.00 | 27 | 1016.3 |
| 20260509224020 | 80 | 158 | 4.0 | 7.0 | 0.00 | 0.00 | 0.00 | 29 | 1016.4 |
| 20260509223520 | 79 | 141 | 4.0 | 7.0 | 0.00 | 0.00 | 0.00 | 21 | 1016.5 |
| 20260509223021 | 81 | 163 | 5.0 | 7.0 | 0.00 | 0.00 | 0.00 | 24 | 1016.5 |
| 20260509222518 | 80 | 159 | 4.0 | 7.0 | 0.00 | 0.00 | 0.00 | 28 | 1016.6 |
| 20260509222021 | 79 | 158 | 4.0 | 7.0 | 0.00 | 0.00 | 0.00 | 24 | 1016.7 |
| 20260509221517 | 79 | 147 | 5.0 | 8.0 | 0.00 | 0.00 | 0.00 | 26 | 1016.9 |
| 20260509221016 | 79 | 149 | 5.0 | 9.0 | 0.00 | 0.00 | 0.00 | 24 | 1016.9 |
| 20260509220515 | 79 | 152 | 6.0 | 10.0 | 0.00 | 0.00 | 0.00 | 23 | 1017.0 |
| 20260509220015 | 79 | 168 | 6.0 | 10.0 | 0.00 | 0.00 | 0.00 | 23 | 1017.0 |
| 20260509215515 | 78 | 157 | 6.0 | 10.0 | 0.00 | 0.00 | 0.00 | 21 | 1017.1 |
| 20260509215018 | 78 | 161 | 5.0 | 8.0 | 0.00 | 0.00 | 0.00 | 23 | 1017.2 |
| 20260509214513 | 78 | 154 | 5.0 | 9.0 | 0.00 | 0.00 | 0.00 | 26 | 1017.2 |
| 20260509214013 | 78 | 137 | 6.0 | 9.0 | 0.00 | 0.00 | 0.00 | 26 | 1017.3 |
| 20260509213513 | 78 | 167 | 5.0 | 9.0 | 0.00 | 0.00 | 0.00 | 26 | 1017.4 |
| 20260509213012 | 78 | 152 | 4.0 | 10.0 | 0.00 | 0.00 | 0.00 | 28 | 1017.4 |
| 20260509212511 | 79 | 148 | 6.0 | 10.0 | 0.00 | 0.00 | 0.00 | 27 | 1017.5 |
| 20260509212010 | 79 | 151 | 5.0 | 8.0 | 0.00 | 0.00 | 0.00 | 30 | 1017.6 |
| 20260509211515 | 79 | 152 | 4.0 | 7.0 | 0.00 | 0.00 | 0.00 | 28 | 1017.8 |
| 20260509211008 | 78 | 155 | 4.0 | 7.0 | 0.00 | 0.00 | 0.00 | 27 | 1017.9 |
| 20260509210507 | 79 | 164 | 3.0 | 8.0 | 0.00 | 0.00 | 0.00 | 28 | 1018.0 |
| 20260509210007 | 78 | 179 | 5.0 | 7.0 | 0.00 | 0.00 | 0.00 | 28 | 1018.0 |
| 20260509205504 | 81 | 173 | 3.0 | 7.0 | 0.00 | 0.00 | 0.00 | 29 | 1018.1 |
| 20260509205003 | 78 | 156 | 4.0 | 7.0 | 0.00 | 0.00 | 0.00 | 31 | 1018.2 |
| 20260509204503 | 77 | 153 | 4.0 | 8.0 | 0.00 | 0.00 | 0.00 | 30 | 1018.4 |
| 20260509204005 | 76 | 158 | 5.0 | 9.0 | 0.00 | 0.00 | 0.00 | 28 | 1018.3 |
| 20260509203502 | 76 | 148 | 4.0 | 9.0 | 0.00 | 0.00 | 0.00 | 27 | 1018.4 |
| 20260509203005 | 75 | 160 | 4.0 | 9.0 | 0.00 | 0.00 | 0.00 | 32 | 1018.4 |
| 20260509202501 | 76 | 150 | 3.0 | 8.0 | 0.00 | 0.00 | 0.00 | 25 | 1018.5 |
| 20260509202101 | 76 | 158 | 4.0 | 8.0 | 0.00 | 0.00 | 0.00 | 35 | 1018.5 |
| 20260509201600 | 76 | 163 | 3.0 | 6.0 | 0.00 | 0.00 | 0.00 | 31 | 1018.7 |
| 20260509201059 | 75 | 152 | 3.0 | 6.0 | 0.00 | 0.00 | 0.00 | 32 | 1018.7 |
| 20260509200559 | 76 | 186 | 3.0 | 6.0 | 0.00 | 0.00 | 0.00 | 37 | 1018.8 |
| 20260509200058 | 74 | 177 | 3.0 | 7.0 | 0.00 | 0.00 | 0.00 | 34 | 1018.9 |
| 20260509195557 | 75 | 153 | 4.0 | 7.0 | 0.00 | 0.00 | 0.00 | 31 | 1019.0 |
| 20260509195056 | 77 | 149 | 4.0 | 7.0 | 0.00 | 0.00 | 0.00 | 29 | 1019.2 |
| 20260509194555 | 75 | 154 | 4.0 | 6.0 | 0.00 | 0.00 | 0.00 | 28 | 1019.3 |
| 20260509194054 | 75 | 167 | 4.0 | 6.0 | 0.00 | 0.00 | 0.00 | 37 | 1019.3 |
| 20260509193553 | 75 | 165 | 3.0 | 6.0 | 0.00 | 0.00 | 0.00 | 39 | 1019.4 |
| 20260509193051 | 75 | 175 | 3.0 | 6.0 | 0.00 | 0.00 | 0.00 | 39 | 1019.5 |
| 20260509192553 | 73 | 186 | 3.0 | 4.0 | 0.00 | 0.00 | 0.00 | 38 | 1019.6 |
| 20260509192049 | 72 | 181 | 1.0 | 5.0 | 0.00 | 0.00 | 0.00 | 40 | 1019.6 |